Temp
3 3 3 4 4 5 6 8 8 7 7 8 10 10 12 14 15 16 15 15 15 15 16 17 17 17 18 20 19 18 20 19 17 19 21 22 22 21 21 18 18 20 19 18
3 3 3 3 4 4 5 8 9 6 6 8 9 12 12 13 13 14 14 14 15 16 15 14 15 16 18 18 18 18 18 17 15 17 19 20 19 20 20 20 20 18 17 18
3 3 3 3 3 3 4 6 7 7 6 8 9 10 11 12 14 13 13 13 14 14 13 13 11 14 16 17 17 14 15 15 15 14 16 15 13 16 19 19 16 16 17 18
2 2 3 3 3 3 5 5 6 9 6 6 7 8 10 11 12 14 12 11 13 12 9 11 11 13 15 16 16 15 15 12 14 15 16 17 16 15 16 16 17 16 16 17
2 2 2 3 3 3 5 5 6 6 7 8 8 8 8 9 10 11 8 10 12 12 8 10 11 13 13 14 16 15 15 12 13 12 14 15 14 15 15 16 16 16 17 17
2 2 2 2 2 3 6 6 5 4 5 9 8 8 8 9 11 8 8 7 7 8 9 11 10 11 12 13 13 13 14 13 12 12 14 14 13 13 15 16 17 17 16 18
2 2 2 2 2 2 4 5 6 6 6 8 9 10 11 10 10 8 10 10 7 10 10 10 10 10 11 12 13 14 13 13 12 11 13 10 14 17 17 17 17 18 18 18
2 2 2 2 2 2 3 3 3 5 5 8 8 9 10 11 11 10 10 9 10 10 6 7 8 10 11 12 13 14 14 14 12 10 13 14 16 17 17 16 16 18 18 18
2 2 2 2 2 2 2 4 3 3 4 7 9 9 10 9 9 9 11 12 11 8 6 7 8 10 12 13 14 16 16 15 13 12 10 11 15 16 17 17 14 18 18 16
2 2 2 2 2 2 2 4 4 2 4 7 8 8 8 8 9 8 9 9 9 8 6 7 9 11 13 12 13 12 13 13 11 12 11 13 17 17 16 13 14 15 15 16
2 1 1 1 1 1 2 3 4 2 3 6 7 7 6 8 8 7 7 7 8 6 7 8 11 11 13 12 14 13 13 12 11 11 11 11 17 17 14 16 15 15 15 15
1 1 1 1 1 1 1 2 4 4 3 5 5 5 5 6 7 7 6 6 6 7 6 7 8 10 11 11 10 15 13 15 13 11 12 12 15 15 16 16 15 14 14 14
1 1 1 1 1 1 1 2 3 3 3 5 6 6 7 7 7 7 6 7 8 7 5 5 6 8 10 9 11 14 14 15 14 14 14 15 16 16 16 16 15 15 14 12
1 1 1 1 1 1 1 2 2 2 3 3 6 7 8 8 8 7 7 8 7 7 6 5 5 6 11 12 13 13 13 13 13 13 14 15 15 15 15 14 15 15 14 13
1 1 1 1 1 1 1 2 2 2 2 3 4 6 6 7 7 8 8 7 6 6 5 5 6 8 9 12 13 13 15 14 13 12 14 14 14 15 15 15 15 14 14 14
1 1 1 1 1 1 1 1 2 2 2 2 4 8 8 8 8 8 7 8 6 5 6 6 8 9 9 11 12 14 15 15 15 14 15 15 14 15 15 14 14 14 14 14
1 1 1 1 1 1 2 3 2 4 2 2 4 7 9 7 8 6 4 3 4 5 5 6 7 7 11 11 11 13 14 15 15 15 14 13 14 14 15 14 14 14 14 13
1 1 1 1 1 1 1 2 2 3 3 5 4 6 8 7 5 5 2 4 3 4 5 7 10 12 11 9 12 14 15 15 15 14 14 14 14 14 14 14 14 14 14 14
1 1 1 1 1 1 1 1 2 1 0 4 5 5 6 5 5 4 4 4 7 7 8 10 11 10 9 11 13 13 14 13 13 14 14 14 13 14 14 14 14 14 13 14
1 1 0 1 3 3 2 1 2 1 2 4 4 7 6 7 5 6 6 7 8 8 10 11 9 10 12 13 14 14 12 12 12 12 12 12 12 13 13 13 13 14 14 13
2 2 3 3 3 4 4 3 3 4 3 4 5 7 6 5 6 6 8 7 8 8 10 9 10 11 13 13 12 10 10 10 11 13 13 13 13 12 12 12 12 12 13 12
3 3 2 2 3 3 3 4 5 5 6 7 7 9 9 6 8 7 7 7 6 7 9 8 9 12 12 10 7 5 5 9 10 11 11 11 12 12 12 11 10 10 7 4
3 4 2 3 3 3 3 4 5 5 7 6 6 6 8 7 8 7 7 5 6 10 7 9 12 11 10 7 4 4 7 8 9 9 9 10 10 10 10 8 7 5 3 2
4 2 3 4 4 4 5 6 6 6 6 6 6 6 6 6 6 6 5 8 9 7 8 10 10 8 6 7 5 6 7 6 6 7 6 4 2 2 2 2 4 2 1 1
3 3 5 5 6 6 5 5 5 5 5 5 5 6 7 5 5 6 7 7 7 9 10 10 7 5 5 5 5 5 5 3 5 5 2 0 1 1 0 -0 1 1 -0 0
2 4 5 6 5 5 4 5 5 5 6 5 7 6 6 6 7 6 6 9 9 10 8 8 7 6 5 5 3 3 3 4 5 5 3 1 0 1 -0 -1 -1 -1 -0 -1
4 4 4 3 4 4 5 5 5 6 5 6 7 6 7 8 8 8 10 9 9 7 7 6 6 5 5 4 3 2 2 4 4 4 2 1 0 0 3 2 0 0 -1 -2
Height
820 821 821 822 823 823 824 823 820 818 820 822 810 800 797 789 784 780 784 781 775 771 763 759 757 755 748 741 744 751 740 739 741 729 714 707 708 710 709 725 729 714 715 715
819 820 821 822 822 822 822 816 814 816 818 809 800 790 789 783 784 781 779 775 771 767 767 766 759 752 749 746 746 747 744 742 745 733 723 714 715 712 711 710 710 718 727 715
818 820 820 821 822 821 822 818 813 811 815 812 804 791 784 781 778 776 778 775 773 769 768 769 772 759 752 749 749 754 753 750 746 748 737 738 749 736 715 712 725 723 719 713
816 819 818 820 820 820 822 819 811 802 809 809 805 800 787 778 772 769 775 773 761 767 777 772 771 763 752 748 747 750 754 756 749 741 734 728 727 733 726 726 723 724 718 720
816 818 819 818 819 819 819 817 812 810 803 802 796 793 789 786 777 777 781 772 763 758 777 771 764 756 752 746 741 742 743 749 747 747 739 734 732 727 726 726 722 719 715 708
814 815 818 818 816 818 813 811 813 816 805 791 793 785 783 778 772 779 781 784 781 773 768 765 769 765 759 753 746 744 740 743 744 738 734 731 735 724 722 715 709 709 709 697
812 813 814 813 814 816 814 812 812 809 801 793 779 774 771 773 772 776 770 773 778 766 769 762 766 761 755 748 739 736 737 735 740 739 731 741 709 701 699 697 697 697 695 692
809 811 810 811 812 813 813 814 815 809 799 789 781 776 768 765 766 767 767 770 769 769 775 764 760 747 742 728 725 725 724 726 732 740 716 708 700 694 694 698 700 688 688 687
805 806 807 808 810 812 813 811 813 812 804 785 779 774 769 766 767 765 760 759 762 766 772 758 752 738 717 711 705 699 707 711 723 724 730 718 694 695 689 693 697 686 685 696
799 801 802 803 805 807 808 806 808 809 798 783 783 778 774 771 767 766 764 761 760 764 766 755 738 723 712 715 704 710 710 713 722 714 717 705 688 687 696 707 703 696 697 696
794 796 798 800 802 802 804 801 802 805 797 785 783 781 782 775 770 768 767 769 759 761 755 743 725 715 704 707 698 703 703 711 713 713 714 714 684 687 698 693 699 697 699 700
788 791 793 795 797 799 799 798 797 796 796 785 781 783 781 780 775 773 772 768 766 762 759 752 734 721 710 711 711 689 697 692 697 711 700 704 698 694 691 693 697 699 702 703
781 785 788 790 792 794 795 793 794 794 790 782 778 772 772 772 772 774 771 762 761 764 767 764 752 731 720 718 703 691 690 689 693 696 692 691 690 690 690 692 696 695 698 702
774 779 782 785 787 789 790 790 790 791 788 778 764 762 760 759 760 760 760 758 764 764 764 762 755 747 714 702 697 694 694 697 696 695 693 690 689 689 691 693 692 692 694 699
767 773 777 781 784 786 786 785 784 785 788 772 765 759 755 753 751 751 752 753 755 758 759 755 747 732 723 701 694 693 689 687 689 691 689 686 686 686 687 688 687 690 690 688
762 768 773 777 780 782 783 781 774 777 781 779 764 742 741 741 741 743 743 739 746 751 747 745 731 723 714 699 690 682 680 681 682 682 682 683 684 684 684 685 686 687 687 687
758 764 769 773 776 778 779 774 773 772 777 776 761 735 727 734 734 738 741 740 740 741 741 734 728 722 709 700 694 683 682 680 679 679 681 681 681 679 679 681 681 681 681 684
756 762 767 771 773 775 774 773 773 772 775 767 755 738 728 732 734 734 737 734 737 734 730 720 708 699 701 698 682 678 674 671 670 672 674 673 674 675 676 677 675 676 676 677
756 762 767 770 771 770 765 768 771 773 776 760 747 739 731 732 729 731 730 727 717 719 710 704 703 702 700 684 678 675 672 673 670 668 668 668 670 670 672 671 671 671 672 671
758 763 767 764 761 763 764 771 771 772 767 759 746 734 730 729 727 721 719 715 711 709 700 697 704 692 683 678 674 673 676 674 670 665 667 668 668 668 667 667 667 667 667 669
759 759 758 758 759 761 761 762 759 752 751 744 731 728 726 729 724 718 716 715 713 708 694 699 690 677 669 674 679 684 680 676 669 664 663 665 665 665 665 665 666 666 665 668
754 755 758 760 760 758 758 747 741 737 726 720 718 710 711 723 720 718 717 718 721 712 701 699 687 668 671 682 691 692 688 679 674 670 667 666 665 664 665 666 668 670 674 677
754 754 758 754 752 750 746 730 724 721 714 719 718 718 716 720 718 718 718 723 715 700 708 690 670 674 681 691 697 693 686 684 679 676 675 673 671 669 670 673 676 679 680 682
754 755 749 741 733 731 722 716 715 719 718 720 721 719 719 721 719 721 722 710 703 704 695 677 681 689 695 693 695 692 689 689 686 682 682 682 681 680 679 678 680 682 684 686
752 746 731 730 723 724 727 727 723 725 723 724 723 721 719 723 722 720 713 711 704 689 678 679 694 699 699 697 696 694 693 692 688 686 687 687 686 684 685 685 685 686 688 689
750 740 733 726 726 724 728 725 724 725 723 724 718 717 717 714 713 713 709 691 685 678 687 691 695 698 699 699 699 699 697 694 691 690 689 689 689 688 689 689 689 690 692 692
741 737 736 736 731 728 726 726 725 725 724 718 712 714 706 701 698 694 685 687 686 693 694 696 698 699 699 700 700 699 697 694 693 692 692 691 691 691 690 691 694 695 695 696
Wind_Speed
2 2 2 2 4 5 6 4 4 3 11 7 6 13 23 11 22 16 17 18 20 21 20 21 21 24 21 12 7 14 17 15 16 22 21 20 18 19 17 11 15 14 13 14
4 4 4 4 3 6 2 3 5 3 6 7 12 17 20 21 24 24 18 19 19 20 21 20 20 22 20 19 20 22 14 10 14 20 19 20 14 20 19 20 17 18 13 14
5 4 3 4 4 4 3 1 3 3 3 9 14 18 20 21 20 18 19 24 24 22 19 19 6 17 14 9 10 8 7 15 20 14 18 5 9 18 20 14 11 14 15 21
5 5 5 5 5 4 5 3 5 3 3 8 16 16 18 23 21 21 18 10 24 22 11 18 20 22 22 21 19 15 9 16 19 21 23 24 19 18 18 19 19 17 18 21
6 6 6 5 6 5 9 2 4 3 7 11 15 15 13 22 24 23 10 21 18 15 7 11 14 15 16 12 11 13 17 19 18 17 21 22 20 20 19 21 24 25 25 29
8 8 8 7 4 8 6 9 6 1 8 15 13 12 13 16 15 5 8 7 11 12 19 16 15 20 18 18 15 14 15 13 14 20 17 21 17 20 23 24 26 25 23 27
10 10 10 9 9 10 11 12 8 5 13 15 16 21 18 16 15 14 15 10 14 10 13 8 14 18 19 22 21 17 20 19 14 12 14 14 13 17 19 21 17 17 19 19
12 12 12 13 12 12 15 14 7 3 9 13 19 23 18 22 20 19 13 15 14 9 1 3 7 11 15 24 25 24 20 18 13 7 14 17 21 21 15 13 17 17 16 15
15 15 14 14 15 14 15 19 14 7 5 15 19 17 19 15 15 16 20 17 14 6 2 3 6 7 11 5 7 23 21 19 13 14 9 14 13 6 7 4 12 13 7 5
19 19 17 17 16 17 17 20 17 10 5 16 18 15 11 12 13 11 15 11 6 8 3 6 9 13 8 9 10 5 11 11 16 15 13 11 16 6 4 6 7 5 8 9
22 20 18 17 17 17 18 21 20 17 4 15 21 19 15 13 12 12 5 7 6 2 7 5 9 9 10 13 13 9 8 7 8 12 7 7 7 4 11 9 3 4 9 11
26 23 21 18 18 18 18 22 20 20 13 13 24 21 20 19 20 13 6 6 11 3 3 5 6 5 3 7 4 13 12 9 6 0 3 5 9 10 5 5 10 10 10 11
28 25 20 19 18 18 19 21 19 13 7 14 20 19 31 30 31 26 12 12 10 7 3 3 5 6 3 4 11 11 9 9 9 10 11 13 14 13 15 12 12 13 9 6
28 24 22 20 18 18 18 19 19 18 7 6 13 24 25 22 25 26 30 25 21 15 6 6 5 7 7 6 7 8 5 4 9 12 14 16 16 16 13 15 16 12 9 12
27 23 21 19 17 17 18 19 21 20 11 5 8 22 25 24 25 23 25 22 14 9 9 6 7 8 8 10 10 9 10 15 12 12 16 14 13 11 14 15 14 12 15 11
29 23 20 18 15 12 7 3 16 24 20 4 5 8 12 16 13 18 18 14 11 7 5 5 6 11 6 6 10 13 15 14 15 16 15 16 15 15 16 16 15 15 14 15
26 21 17 16 14 13 8 3 11 9 18 3 4 6 3 9 11 3 2 4 2 3 3 5 9 9 5 6 13 19 18 18 17 17 16 18 18 14 13 12 12 12 12 11
22 17 16 13 13 12 16 17 8 7 11 5 4 6 10 7 4 3 3 3 4 5 3 4 8 7 3 5 13 15 15 16 15 15 17 18 16 16 12 12 10 11 12 11
20 16 11 7 7 4 9 17 10 2 4 3 4 7 6 1 2 1 3 3 3 3 3 3 3 4 7 14 14 15 16 15 16 13 14 14 12 14 14 15 13 11 9 7
19 12 4 3 6 12 19 8 4 4 4 4 5 6 10 3 2 1 2 2 1 1 3 2 3 9 18 19 18 13 15 14 15 14 13 14 14 14 16 17 13 13 12 8
9 6 3 5 14 7 3 3 5 6 4 5 6 13 10 3 4 1 1 0 1 3 1 3 4 5 5 2 7 11 13 11 9 7 8 9 11 11 12 11 10 10 9 8
6 6 6 5 2 3 4 4 4 6 5 4 5 7 9 4 4 2 1 1 0 4 4 3 3 4 5 5 7 9 11 9 8 8 8 6 6 6 5 3 2 1 6 10
5 2 1 3 4 7 5 6 4 4 3 2 2 3 3 3 4 1 2 3 4 3 2 3 4 5 5 4 1 6 8 9 11 9 7 8 6 6 5 6 8 8 8 11
1 3 5 4 5 5 3 6 6 4 3 2 2 2 0 1 3 1 3 4 3 3 3 2 6 8 6 5 4 6 8 9 9 7 7 6 6 6 11 12 9 12 8 10
3 4 3 4 3 2 3 3 3 2 0 2 2 2 2 2 3 3 3 2 4 5 3 4 4 4 5 6 6 6 6 6 6 6 5 4 5 4 6 8 7 6 9 9
3 4 4 4 5 1 2 2 1 1 2 3 3 4 3 5 3 5 6 3 4 1 4 5 3 3 3 5 5 6 7 6 5 4 4 5 5 4 5 8 8 7 8 10
3 3 3 5 5 5 2 1 2 1 2 3 3 3 5 3 3 4 3 3 5 5 4 3 4 5 6 6 5 3 4 5 5 3 4 3 4 5 7 6 7 7 9 13
Wind_Direction
223 239 247 274 261 235 209 242 237 115 172 202 224 237 245 242 269 249 251 265 272 270 274 273 273 271 272 297 288 284 288 294 282 266 267 262 267 272 250 237 252 247 254 257
203 221 238 240 229 206 215 230 239 144 204 239 231 250 257 250 254 262 263 258 256 259 264 268 271 269 274 273 273 271 272 264 277 265 252 261 239 252 252 263 272 263 262 263
218 225 242 255 243 232 219 263 251 189 197 247 264 262 261 263 253 258 260 262 263 266 269 274 255 273 267 267 265 344 334 266 261 266 278 305 284 279 281 261 247 262 261 280
198 227 255 243 233 229 218 196 238 268 223 237 237 249 271 268 264 260 244 265 249 249 257 256 258 261 263 259 256 260 261 256 260 270 278 284 280 257 266 277 271 268 274 270
219 238 246 237 224 226 234 221 248 203 273 283 269 243 245 255 267 269 264 243 248 254 258 245 261 270 279 262 269 248 234 244 262 259 265 274 277 275 265 264 265 270 273 273
234 244 251 246 235 214 239 246 222 236 285 254 242 250 247 256 248 255 268 293 309 293 256 247 264 282 281 275 271 267 250 247 250 254 247 252 256 248 253 259 263 265 266 268
241 243 244 247 246 233 262 266 278 254 264 265 263 261 264 278 277 272 276 270 284 298 302 254 248 255 262 264 254 251 255 248 245 265 261 250 257 251 248 257 276 271 269 280
245 249 249 245 250 249 253 263 262 251 259 266 268 269 277 274 259 266 271 289 286 284 296 236 254 246 248 246 243 239 234 246 253 252 245 258 269 274 232 243 258 269 269 294
243 248 249 248 245 250 253 256 254 266 269 258 265 279 274 276 277 284 276 249 250 239 260 222 237 252 266 259 231 224 227 231 236 236 264 261 279 324 58 262 271 269 281 288
239 242 243 241 239 242 244 254 242 254 250 264 272 272 282 308 284 284 295 320 277 208 246 246 259 249 228 233 247 190 217 226 230 234 244 262 256 163 158 253 293 7 329 305
235 239 240 242 243 241 240 252 248 235 275 279 281 282 283 287 287 285 329 320 217 246 233 225 249 243 235 242 240 209 218 216 227 240 240 258 315 242 245 283 302 316 328 323
232 235 236 239 244 243 241 252 252 249 241 272 290 280 276 281 281 284 272 269 302 303 295 324 305 253 278 255 255 221 236 241 265 64 313 359 308 315 316 302 313 315 306 304
228 230 232 237 240 245 243 250 257 264 255 267 259 258 262 255 255 257 266 267 272 266 312 320 325 293 312 231 238 238 231 249 251 266 277 296 295 293 271 275 285 287 270 270
225 228 231 234 241 246 254 253 252 246 278 271 272 268 264 254 252 245 243 254 262 262 268 282 262 267 271 282 297 293 285 230 248 267 266 272 277 277 263 277 276 267 237 243
220 224 225 230 238 249 265 261 251 245 233 286 296 300 283 263 255 252 252 240 242 241 248 249 263 273 259 261 269 267 261 256 257 255 258 265 261 265 255 255 265 276 281 243
215 214 218 222 231 256 249 276 249 228 226 257 271 267 290 266 246 236 267 237 221 221 224 235 239 233 266 266 273 272 256 263 271 274 280 287 295 285 282 279 277 268 270 271
209 211 210 214 223 211 210 284 333 216 193 247 260 264 184 231 248 252 249 295 188 192 208 229 249 268 231 270 268 272 279 280 274 269 270 271 271 271 277 267 264 263 251 257
198 195 198 212 225 245 249 251 290 194 195 242 256 268 271 159 199 227 185 198 189 199 222 222 227 252 271 266 268 277 278 278 275 255 255 258 264 263 264 266 263 265 263 257
172 174 182 207 220 220 235 202 196 211 301 259 233 257 304 114 273 230 206 228 195 173 241 252 279 232 228 250 281 292 301 300 291 281 272 257 258 251 248 261 274 262 261 261
151 147 163 205 201 135 120 148 169 201 225 237 252 277 259 271 249 221 213 229 309 250 226 144 231 253 262 271 283 315 321 312 296 264 253 261 265 264 266 272 273 257 247 270
163 185 201 101 145 154 197 205 217 191 224 218 236 229 250 281 254 311 52 13 345 267 153 217 224 259 271 16 342 342 326 327 311 290 267 266 270 273 275 274 271 262 265 260
186 132 93 146 218 194 234 218 202 222 237 195 235 243 206 201 229 259 161 248 19 253 355 268 265 295 56 27 358 337 325 331 346 351 352 342 320 292 262 268 295 332 59 85
148 157 122 209 173 225 228 212 194 221 192 162 180 178 177 172 231 258 206 231 235 296 243 238 266 15 37 24 13 319 314 352 1 360 360 11 13 62 99 104 106 121 109 120
224 199 233 224 187 225 217 323 5 21 29 186 205 146 210 8 195 128 242 232 252 255 246 269 25 23 357 1 352 353 346 357 341 358 6 11 17 30 29 64 116 124 116 123
256 229 262 218 329 329 331 322 302 32 144 155 167 151 217 181 219 222 269 246 241 229 261 10 40 18 358 347 355 351 343 339 344 4 29 16 21 63 58 55 75 122 138 133
243 244 273 290 289 204 214 299 310 142 207 245 235 186 201 213 214 195 220 243 251 320 13 9 7 1 350 339 342 337 336 328 336 27 46 57 48 72 83 76 75 92 123 115
244 260 277 277 291 301 340 319 301 306 271 251 271 232 231 305 238 223 224 248 338 352 343 3 360 342 340 332 325 327 326 327 336 358 17 65 95 128 122 104 97 106 103 109